Погода в Кичере

Россия / Республика Бурятия     55°56′25″N   110°06′12″E
темп.,
°C
ветер,
м/с
пор.,
м/с
влажн.,
%
обл.,
%
осадки,
мм/ч
давл.,
гПа
погр.,
м
12 августа, пт
пт1223:00+11сз018380 0.0 100911
02:00+9с118514 0.0 100910
05:00+8с11856 0.0 100910
08:00+13ююз117183 0.0 1009208
11:00+14ююз217051 0.0 1009445
14:00+16ююз326124 0.4 1008838
17:00+15ююз33668 0.8 1008525
20:00+10ююз118948 1.3 100910
13 августа, сб
сб1323:00+8зюз119095 0.0 100910
02:00+8зюз119094 0.0 100910
05:00+9юз119145 0.3 100811
08:00+12ююз228114 0.6 1008256
11:00+15ююз3469100 0.5 1007580
14:00+16ююз3465100 1.7 1006646
17:00+15ю2267100 0.8 1006369
20:00+10ююз01853 1.5 100710
14 августа, вс
вс1423:00+10с328215 0.1 100719
02:00+10ссз228095 0.1 100628
05:00+9ссз338018 0.0 100626
08:00+12ссз236878 0.0 1006278
11:00+16зсз11545 0.0 10051048
14:00+18юз324330 0.0 10041803
17:00+18ююз32445 0.0 10041148
20:00+12зюз117132 0.0 100510
15 августа, пн
пн1523:00+10св117412 0.0 100611
02:00+9зюз0176100 0.0 100610
05:00+9юз1173100 0.0 100610
08:00+10ююз1276100 0.4 1006111
11:00+15ююз345164 0.0 1005693
14:00+16ююз4547100 0.0 1004821
17:00+15ю225371 0.0 1002457
20:00+10ююз2389100 1.4 1003107
16 августа, вт
вт1623:00+9ююз229999 3.5 1004143
02:00+8юз249799 3.7 1005284
05:00+8ююз259897 0.5 1004310
08:00+8юз468897 1.2 1006345
11:00+7юз5789100 0.6 1007776
14:00+8юз5784100 1.1 10081067
17:00+7юз1488100 0.7 1008404
20:00+7ю119398 1.8 1009108